Location: Newark
(43.4306°N, 0.3089°E)
Time: 17:22:33
(UTC+00:00)

Vanguard 3 - Pass Details

Date: 30 August 2019
Orbit: 508 x 3263 km, 33.4° (Epoch: 22 September)

Event Time Altitude Azimuth Distance (km) Brightness Sun altitude
Rises 17:32:45 0° 263° (W) 5,255 13.3 10.9°
Reaches altitude 10° 17:37:14 10° 256° (WSW) 3,761 12.4 10.1°
Maximum altitude 17:45:00 34° 197° (SSW) 1,660 9.0 8.7°
Drops below altitude 10° 17:49:52 10° 133° (SE) 2,321 9.1 7.8°
Sets 17:52:01 0° 122° (ESE) 3,034 9.5 7.5°
